Regional Weather Roundup
Issued by NWS

Home | Current Version | Previous Version | Graphics & Text | Print | Product List | Glossary On
Versions: 1 2 3 4 5 6 7 8 9 10 11 12 13 14 15 16 17 18 19 20 21 22 23 24 25 26 27 28 29 30 31 32 33 34 35 36 37 38 39 40 41 42 43 44 45 46 47 48 49 50
002
ASUS43 KFSD 110010
RWRSD

WEATHER ROUNDUP FOR SOUTH DAKOTA
NATIONAL WEATHER SERVICE SIOUX FALLS SD
600 PM CST WED FEB 10 2016

NOTE: "FAIR" INDICATES FEW OR NO CLOUDS BELOW 12,000 FEET WITH NO
SIGNIFICANT WEATHER AND/OR OBSTRUCTIONS TO VISIBILITY.


SDZ001>005-009-010-012>017-110100-
NORTHWEST AND NORTH CENTRAL SOUTH DAKOTA

CITY           SKY/WX    TMP DP  RH WIND       PRES   REMARKS
BUFFALO          N/A     42  30  62 N9        29.99R
FAITH            N/A     35  27  72 NE15      30.04R WCI  25
MOBRIDGE       CLOUDY    26  18  71 NE10      30.09R WCI  16
$$

SDZ012>016-024>037-041>051-057-063-072>074-110100-
SOUTHWEST AND SOUTH CENTRAL SOUTH DAKOTA

CITY           SKY/WX    TMP DP  RH WIND       PRES   REMARKS
RAPID CTY ARPT CLEAR     55  23  28 NW24G33   30.01R
PIERRE         CLOUDY    32  25  75 NE15      30.05R WCI  22
CUSTER         CLEAR     48  18  30 N9G23     30.04R
ELLSWORTH AFB  CLEAR     51  25  36 N16       30.01R
PHILIP         CLEAR     42  31  64 NE16G26   30.02R
PINE RIDGE     CLEAR     49  24  37 N6        30.01R
SPEARFISH      FAIR      46  25  42 NW10      30.06R
WINNER         FAIR      37  28  70 NE16      30.02R
$$

SDZ004>011-016>023-039-040-110100-
NORTHEAST SOUTH DAKOTA

CITY           SKY/WX    TMP DP  RH WIND       PRES   REMARKS
ABERDEEN       CLOUDY    16  10  77 NE9       30.16R WCI   4
WATERTOWN      LGT SNOW  11   4  73 E5        30.11R WCI   3
BROOKINGS      CLOUDY    11   6  81 E9        30.10R WCI  -2
SISSETON         N/A     11   6  81 E5        30.19R WCI   3
$$

SDZ017-020-022-023-036>040-048>070-110100-
SOUTHEAST SOUTH DAKOTA

CITY           SKY/WX    TMP DP  RH WIND       PRES   REMARKS
SIOUX FALLS    CLOUDY    16  10  77 E12       30.10R WCI   3
HURON          CLOUDY    20  13  74 E10       30.11R WCI   9
CHAMBERLAIN    CLOUDY    31  25  78 NE13      30.05R WCI  22
MITCHELL       CLOUDY    23  16  74 E10       30.09R WCI  12
YANKTON        CLOUDY    21  16  79 NE12      30.08R WCI   9
$$

ABBREVIATIONS USED IN REMARKS
   TC - TEMPERATURE IN CELSIUS
  WCI - WIND CHILL INDEX
   HX - HEAT INDEX
  VSB - VISIBILITY





USA.gov is the U.S. government's official web portal to all federal, state and local government web resources and services.